Location: Alsip
(41.6689°N, 87.7387°W)
Time: 13:58:48
(UTC+00:00)

Cosmos 2123 Rocket - Pass Details

Date: 14 July 2020
Orbit: 960 x 993 km, 82.9° (Epoch: 04 August)

Event Time Altitude Azimuth Distance (km) Brightness Sun altitude
Rises 05:58:32 0° 351° (N) 3,657 8.3 -26.7°
Reaches altitude 10° 06:01:03 10° 352° (N) 2,705 7.3 -26.7°
Maximum altitude 06:07:15 86° 265° (W) 969 3.8 -26.7°
Enters shadow 06:08:02 70° 185° (S) 1,021 3.8 -26.7°
